[[{"header":{"parameterUnit":"m.s-1","parameterCategory":2,"la1":30.2991,"la2":30.254,"lo1":-89.0895,"lo2":-89.0444,"dy":0.0017,"dx":0.0017,"nx":28,"ny":28,"refTime":"2023-08-08T21:00:00:Z","depth":"0","parameterNumber":2,"parameterNumberName":"U-component_of_CURRENTS"},"data":[0,0,0,0,0,0,0,0,0,0,0,0,0,0,0,0,0,0,0,0,0,0,0,0,0,0,0,0,0,0,0,0,0,0,0,0,0,0,0,0,0,0,0,0,0,0,0,0,0,0,0,0,0,0,0,0,0,0,0.1529,0.1529,0,0.1582,0.1583,0.1584,0.1632,0.1632,0.1632,0.1632,0.1684,0.1685,0.1686,0,0,0,0,0,0,0,0,0,0,0,0,0,0.1367,0.137,0.1529,0.1529,0.153,0.1581,0.1583,0.1584,0.1632,0.1632,0.1632,0.1632,0.1684,0.1685,0.1687,0,0,0,0,0,0,0,0,0,0,0,0,0,0.1434,0.1372,0.1529,0.1557,0.1559,0.1581,0.1583,0.1584,0.1632,0.1632,0.1632,0.1632,0.1683,0.1685,0.1687,0.1693,0,0,0.1692,0.1693,0,0,0,0,0,0,0,0,0.1431,0.1441,0.1552,0.1555,0.1558,0.1596,0.1544,0.1619,0.1631,0.1609,0.1632,0.1632,0.1652,0.1656,0.1672,0.1695,0.1698,0.1693,0.1694,0.1694,0.1695,0,0,0,0,0,0,0,0.1426,0.1438,0.1555,0.1552,0.1556,0.153,0.1542,0.1558,0.1632,0.1611,0.1613,0.1612,0.1654,0.167,0.1673,0.1698,0.1692,0.1694,0.1695,0.1696,0.1932,0.1937,0,0,0,0,0,0,0.1417,0.1435,0.1553,0.1556,0.1488,0.1533,0.1546,0.1587,0.1631,0.1637,0.1612,0.1614,0.1667,0.1671,0.1675,0.1799,0.1694,0.1696,0.1697,0.1927,0.1933,0.1939,0,0,0,0,0,0,0.1414,0.1428,0.1551,0.1489,0.1503,0.1536,0.1582,0.1588,0.1603,0.1631,0.1638,0.1618,0.1667,0.1673,0.1747,0.1797,0.1697,0.1699,0.1921,0.1929,0.1936,0.1973,0,0,0,0,0,0,0.141,0.1428,0.1455,0.1491,0.1506,0.1594,0.1581,0.1589,0.1599,0.1603,0.1639,0.1645,0.1668,0.1745,0.1749,0.1798,0.17,0.1914,0.1924,0.1934,0.1966,0.1981,0.1995,0,0,0,0,0,0.1404,0.1452,0.1457,0.147,0.1544,0.1595,0.1603,0.1626,0.1599,0.1633,0.1675,0.1643,0.181,0.175,0.1753,0.1804,0.191,0.1922,0.1933,0.1959,0.1978,0.1995,0,0,0,0,0,0,0.1401,0.1461,0.1468,0.1534,0.1568,0.1602,0.1635,0.1619,0.1672,0.1675,0.1686,0.1699,0.1794,0.1804,0.1736,0.1915,0.1863,0.1876,0.1882,0.19,0.1915,0.1929,0.1702,0,0,0,0,0,0.1409,0.1462,0.1504,0.1555,0.1582,0.1597,0.1613,0.1623,0.1665,0.1686,0.1707,0.1764,0.1846,0.1873,0.1941,0.2005,0.2035,0.2056,0.2071,0.2082,0.2107,0.2192,0.2215,0.1977,0.1977,0.1977,0,0,0.1413,0.1456,0.1482,0.1556,0.1591,0.1642,0.1613,0.1652,0.1687,0.1683,0.1753,0.1805,0.188,0.1988,0.203,0.1995,0.2175,0.2097,0.2106,0.2125,0.2207,0.2229,0.2249,0.1985,0.1983,0.1982,0,0,0.1453,0.1504,0.1558,0.1602,0.1652,0.167,0.1675,0.1712,0.1737,0.1805,0.1836,0.1925,0.2006,0.209,0.2139,0.2273,0.2254,0.2292,0.2359,0.2441,0.2459,0.2476,0.2556,0.2579,0.2291,0.2291,0.2291,0,0.1438,0.1536,0.1578,0.1646,0.1683,0.1683,0.1739,0.1771,0.1818,0.1852,0.1847,0.2026,0.2071,0.2218,0.2291,0.23,0.2341,0.2266,0.2453,0.247,0.2486,0.2564,0.2589,0.2294,0.2294,0.2293,0.2293,0,0.1527,0.1598,0.1643,0.1733,0.1781,0.1832,0.1878,0.1914,0.1925,0.1953,0.2084,0.217,0.2272,0.2317,0.2349,0.2501,0.2491,0.2456,0.2385,0.2511,0.2587,0.2613,0.2299,0.2298,0.2297,0.2296,0,0,0.1508,0.1662,0.1676,0.174,0.1828,0.1877,0.1951,0.2026,0.2072,0.2139,0.2228,0.2389,0.2403,0.2467,0.2507,0.2597,0.2753,0.2582,0.2585,0.2623,0.2942,0.2971,0.3001,0.2732,0.2736,0.274,0.295,0,0.1554,0.1684,0.1749,0.1867,0.195,0.1991,0.2062,0.2127,0.2179,0.2266,0.2358,0.2471,0.2464,0.2528,0.2614,0.2714,0.2822,0.2701,0.285,0.2856,0.2832,0.3032,0.2979,0.3165,0.2974,0.2978,0.2981,0,0.1642,0.1711,0.1828,0.1962,0.1999,0.2056,0.217,0.223,0.2341,0.2387,0.2488,0.2545,0.27,0.2677,0.2888,0.2803,0.2899,0.2973,0.298,0.3014,0.2934,0.3014,0.3218,0.3055,0.302,0.3017,0.3014,0,0.1656,0.1788,0.1876,0.1923,0.2052,0.2106,0.2163,0.2268,0.2317,0.2466,0.2527,0.2673,0.2765,0.2892,0.3025,0.2968,0.3259,0.318,0.3309,0.3309,0.3303,0.3297,0.3336,0.3378,0.3377,0.3376,0.3376,0,0.1721,0.1796,0.1886,0.1943,0.2025,0.2125,0.221,0.2287,0.2391,0.2485,0.2579,0.2704,0.2828,0.2983,0.3085,0.3286,0.3298,0.3388,0.3394,0.332,0.3313,0.3198,0.3125,0.3384,0.3383,0.3381,0.338,0,0.175,0.1816,0.1908,0.2011,0.2048,0.2103,0.22,0.2261,0.2367,0.2499,0.2555,0.2741,0.2967,0.3096,0.3337,0.3374,0.348,0.3631,0.3541,0.3534,0.3465,0.3398,0.3413,0.3344,0.3804,0.3806,0.3808,0,0.1778,0.1833,0.1919,0.1947,0.1992,0.2069,0.2125,0.2235,0.2308,0.2543,0.2628,0.2875,0.3047,0.3378,0.3558,0.3763,0.3611,0.3809,0.3708,0.3521,0.345,0.3263,0.3187,0.3718,0.372,0.3721,0.3721,0,0.179,0.1808,0.1856,0.1919,0.1977,0.2022,0.2127,0.217,0.2337,0.2468,0.2698,0.2856,0.3225,0.3405,0.3669,0.3818,0.3614,0.3835,0.367,0.3451,0.3225,0.3138,0.3501,0.3729,0.3729,0.3728,0.3728,0.3727,0.1759,0.1781,0.1837,0.189,0.1928,0.1977,0.2016,0.2139,0.2256,0.2456,0.2669,0.2866,0.3148,0.3532,0.3638,0.3754,0.3735,0.3702,0.3662,0.3504,0.3368,0.3765,0.3968,0.3968,0.3969,0.3969,0.3969,0,0.1764,0.1794,0.1818,0.1872,0.1876,0.1924,0.2018,0.2058,0.2191,0.239,0.2575,0.2822,0.3034,0.3249,0.3521,0.3517,0.3388,0.3488,0.318,0.3136,0.3532,0.3454,0.3519,0.3519,0.3519,0.3519,0.3519,0.352,0.1774,0.1817,0.1833,0.1816,0.1834,0.1866,0.1902,0.1976,0.209,0.2254,0.2383,0.2539,0.2811,0.3101,0.3184,0.3199,0.2956,0.296,0.2886,0.3107,0.3119,0.3131,0.3035,0.3011,0.3011,0.2379,0.2374,0.2371]},{"header":{"parameterUnit":"m.s-1","parameterCategory":2,"la1":30.2991,"la2":30.254,"lo1":-89.0895,"lo2":-89.0444,"dy":0.0017,"dx":0.0017,"nx":28,"ny":28,"refTime":"2023-08-08T21:00:00:Z","depth":"0","parameterNumber":3,"parameterNumberName":"V-component_of_CURRENTS"},"data":[0,0,0,0,0,0,0,0,0,0,0,0,0,0,0,0,0,0,0,0,0,0,0,0,0,0,0,0,0,0,0,0,0,0,0,0,0,0,0,0,0,0,0,0,0,0,0,0,0,0,0,0,0,0,0,0,0,0,-0.0109,-0.011,0,-0.023,-0.0232,-0.0234,-0.0369,-0.037,-0.0371,-0.0372,-0.0397,-0.0397,-0.0397,0,0,0,0,0,0,0,0,0,0,0,0,0,-0.0098,-0.0098,-0.0109,-0.011,-0.011,-0.0229,-0.0232,-0.0235,-0.0369,-0.037,-0.0371,-0.0372,-0.0397,-0.0397,-0.0397,0,0,0,0,0,0,0,0,0,0,0,0,0,-0.0159,-0.0098,-0.0109,-0.0183,-0.019,-0.0229,-0.0232,-0.0236,-0.0369,-0.037,-0.0372,-0.0373,-0.0398,-0.0397,-0.0397,-0.0366,0,0,-0.0396,-0.0396,0,0,0,0,0,0,0,0,-0.0156,-0.0161,-0.0172,-0.0178,-0.0186,-0.0276,-0.0237,-0.0271,-0.0368,-0.0313,-0.0372,-0.0374,-0.034,-0.0344,-0.0381,-0.0367,-0.0368,-0.0396,-0.0396,-0.0396,-0.0395,0,0,0,0,0,0,0,-0.0151,-0.0157,-0.0168,-0.0172,-0.0181,-0.0245,-0.0256,-0.0246,-0.0323,-0.0318,-0.0325,-0.032,-0.0345,-0.0381,-0.0382,-0.0368,-0.0396,-0.0396,-0.0395,-0.0395,-0.0267,-0.0264,0,0,0,0,0,0,-0.0107,-0.0152,-0.0164,-0.0171,-0.0162,-0.0243,-0.0255,-0.0255,-0.0326,-0.0336,-0.0319,-0.0326,-0.0381,-0.0382,-0.0383,-0.0316,-0.0396,-0.0395,-0.0395,-0.027,-0.0266,-0.0263,0,0,0,0,0,0,-0.0106,-0.0107,-0.0159,-0.0156,-0.0165,-0.0239,-0.0239,-0.0256,-0.0295,-0.0326,-0.0337,-0.0339,-0.0382,-0.0383,-0.0376,-0.0319,-0.0395,-0.0395,-0.0274,-0.0269,-0.0265,-0.0203,0,0,0,0,0,0,-0.0106,-0.0106,-0.01,-0.0152,-0.0163,-0.017,-0.0237,-0.0257,-0.0284,-0.0295,-0.0345,-0.035,-0.0383,-0.0376,-0.0376,-0.032,-0.0394,-0.0278,-0.0272,-0.0266,-0.0209,-0.0197,-0.0186,0,0,0,0,0,-0.0105,-0.0091,-0.0099,-0.0101,-0.0149,-0.0167,-0.018,-0.0247,-0.0283,-0.0291,-0.0328,-0.0349,-0.0336,-0.0375,-0.0374,-0.0317,-0.0281,-0.0274,-0.0267,-0.0214,-0.0199,-0.0186,0,0,0,0,0,0,-0.0074,-0.0103,-0.0114,-0.0107,-0.0123,-0.0186,-0.0196,-0.0234,-0.0277,-0.0286,-0.0331,-0.0337,-0.0307,-0.031,-0.0351,-0.0255,-0.03,-0.0293,-0.026,-0.0246,-0.0235,-0.0214,-0.0394,0,0,0,0,0,-0.0058,-0.0066,-0.0085,-0.0077,-0.0079,-0.0133,-0.0151,-0.0188,-0.0223,-0.0248,-0.0275,-0.0282,-0.0274,-0.0263,-0.0264,-0.0216,-0.0237,-0.0167,-0.0155,-0.0146,-0.0124,-0.0128,-0.0116,-0.0239,-0.0239,-0.0239,0,0,-0.0032,-0.0056,-0.0054,-0.0072,-0.0096,-0.0084,-0.0152,-0.0165,-0.0159,-0.0234,-0.0235,-0.0253,-0.0255,-0.0218,-0.0198,-0.0214,-0.012,-0.0137,-0.0129,-0.0112,-0.012,-0.0108,-0.0098,-0.0234,-0.0235,-0.0236,0,0,0.0012,-0.0011,0.0004,-0.001,-0.0028,-0.0053,-0.0045,-0.0088,-0.0114,-0.011,-0.0152,-0.0138,-0.0133,-0.0123,-0.0116,-0.0027,-0.007,-0.0009,0.0073,0.0068,0.0077,0.0085,0.0066,0.0072,0.0009,0.0009,0.0009,0,0.0046,0.0056,0.001,0.002,0.0025,-0.0026,0.0008,-0.0019,-0.0055,-0.0047,-0.0092,-0.0066,-0.0083,-0.0014,0.0006,-0.0001,-0.0022,0.0008,0.0079,0.0086,0.0093,0.0072,0.0077,0.0013,0.0012,0.0012,0.0011,0,0.0103,0.0111,0.0121,0.012,0.0119,0.0134,0.0116,0.0113,0.0084,0.0067,0.0106,0.0074,0.0096,0.0106,0.0073,0.0146,0.0108,0.0075,0.003,0.0108,0.0082,0.0086,0.0018,0.0017,0.0016,0.0015,0,0,0.017,0.0167,0.0167,0.019,0.0171,0.0183,0.0207,0.023,0.0256,0.0232,0.028,0.0285,0.0263,0.0273,0.0252,0.0255,0.0265,0.0192,0.019,0.0152,0.0241,0.0212,0.0213,0.023,0.0231,0.0233,0.0199,0,0.0233,0.0283,0.0259,0.032,0.0352,0.0319,0.035,0.0358,0.0346,0.0377,0.0369,0.0401,0.0331,0.0348,0.0339,0.0285,0.0281,0.0277,0.0193,0.0191,0.0137,0.022,0.0286,0.0262,0.0202,0.0203,0.0203,0,0.0284,0.0312,0.039,0.0424,0.0439,0.0471,0.0513,0.0534,0.0557,0.0548,0.0571,0.0547,0.0574,0.0491,0.0438,0.0432,0.0351,0.0297,0.0293,0.0253,0.0172,0.0181,0.0271,0.0071,0.0209,0.0209,0.0208,0,0.0339,0.0393,0.0463,0.0473,0.0515,0.0552,0.0579,0.0598,0.0633,0.067,0.0708,0.0697,0.0712,0.0622,0.0497,0.0466,0.042,0.0358,0.0262,0.0257,0.0295,0.0292,0.0169,0.0326,0.0326,0.0326,0.0326,0,0.0396,0.0445,0.0501,0.0536,0.0622,0.063,0.0711,0.0722,0.0778,0.0865,0.0813,0.0888,0.0741,0.0693,0.0555,0.043,0.0459,0.0301,0.0262,0.0319,0.0319,0.0129,0.0033,0.0325,0.0325,0.0325,0.0325,0,0.0436,0.047,0.0541,0.0615,0.0645,0.0705,0.0786,0.0851,0.0888,0.1005,0.1035,0.1032,0.0971,0.0808,0.0665,0.0517,0.031,0.0335,0.0405,0.0375,0.0084,-0.0008,-0.0107,-0.0171,0.023,0.0229,0.0228,0,0.0474,0.0518,0.0593,0.0641,0.0679,0.0767,0.0836,0.0894,0.0981,0.1116,0.1204,0.1184,0.1214,0.0978,0.0712,0.0473,0.0308,0.0354,0.0312,0.0101,-0.0031,-0.0088,-0.0139,0.0381,0.0382,0.0382,0.0383,0,0.0542,0.0551,0.0605,0.0694,0.0775,0.0879,0.0998,0.1094,0.1209,0.1329,0.1493,0.1538,0.1323,0.1134,0.0778,0.0603,0.0255,0.0356,0.0139,0.0092,0.0028,-0.0063,0.0342,0.0388,0.0388,0.0387,0.0387,0.0387,0.0583,0.0622,0.0678,0.076,0.0851,0.1014,0.1145,0.1304,0.1497,0.1744,0.1735,0.1845,0.1496,0.1037,0.0773,0.0257,0.0256,0.0123,0.0032,-0.0006,-0.007,0.0335,0.0328,0.0327,0.0326,0.0326,0.0325,0,0.0659,0.0693,0.0755,0.0872,0.0987,0.1035,0.1273,0.145,0.1731,0.1915,0.2071,0.1934,0.1534,0.104,0.0354,0.0004,-0.0107,-0.0195,-0.0259,-0.0295,0.0073,0.0073,0.0012,0.0012,0.0012,0.0012,0.0012,0.0013,0.0699,0.0772,0.0792,0.0976,0.1077,0.1314,0.1482,0.1744,0.1931,0.2187,0.2242,0.2265,0.1812,0.0626,-0.0174,-0.0351,-0.0623,-0.0619,-0.08,-0.0573,-0.0551,-0.053,-0.0556,-0.0748,-0.0749,-0.1084,-0.1088,-0.1091]}],[{"header":{"parameterUnit":"m.s-1","parameterCategory":2,"la1":30.2991,"la2":30.254,"lo1":-89.0895,"lo2":-89.0444,"dy":0.0017,"dx":0.0017,"nx":28,"ny":28,"refTime":"2023-08-08T21:00:00:Z","depth":"2","parameterNumber":2,"parameterNumberName":"U-component_of_CURRENTS"},"data":[0,0,0,0,0,0,0,0,0,0,0,0,0,0,0,0,0,0,0,0,0,0,0,0,0,0,0,0,0,0,0,0,0,0,0,0,0,0,0,0,0,0,0,0,0,0,0,0,0,0,0,0,0,0,0,0,0,0,0.0199,0.0197,0,0.0274,0.0278,0.0281,0.0553,0.0556,0.0559,0.0561,0.0825,0.083,0.0834,0,0,0,0,0,0,0,0,0,0,0,0,0,0.0053,0.0059,0.0199,0.0197,0.0194,0.0273,0.0278,0.0282,0.0552,0.0556,0.0559,0.0563,0.0824,0.0829,0.0834,0,0,0,0,0,0,0,0,0,0,0,0,0,0.0156,0.0061,0.0199,0.0312,0.032,0.0272,0.0278,0.0284,0.0552,0.0556,0.056,0.0564,0.0822,0.0829,0.0835,0.0789,0,0,0.0855,0.0858,0,0,0,0,0,0,0,0,0.015,0.0166,0.0298,0.0304,0.0313,0.0377,0.0321,0.0449,0.0551,0.0502,0.0561,0.0566,0.0666,0.0686,0.0739,0.0802,0.0813,0.0856,0.086,0.0862,0.0864,0,0,0,0,0,0,0,0.0143,0.0162,0.0265,0.0294,0.0303,0.0274,0.0301,0.0348,0.059,0.0506,0.0517,0.0467,0.0677,0.0732,0.0747,0.0817,0.0855,0.0861,0.0865,0.0868,0.0832,0.0827,0,0,0,0,0,0,0.007,0.0157,0.0262,0.0264,0.0199,0.0272,0.0302,0.0381,0.0586,0.0609,0.0463,0.0478,0.0719,0.0739,0.0757,0.0958,0.0862,0.0868,0.0872,0.0836,0.083,0.0825,0,0,0,0,0,0,0.0069,0.0084,0.0259,0.0174,0.0191,0.0268,0.0355,0.038,0.0518,0.0544,0.0581,0.058,0.0723,0.0748,0.0844,0.0961,0.0871,0.0877,0.0842,0.0835,0.0828,0.1203,0,0,0,0,0,0,0.0067,0.0087,0.0149,0.0174,0.0191,0.0234,0.0348,0.0377,0.0456,0.0483,0.0653,0.0679,0.0728,0.0834,0.0851,0.0968,0.0882,0.0848,0.0839,0.083,0.1197,0.1209,0.122,0,0,0,0,0,0.0064,0.0123,0.0156,0.0165,0.0271,0.0228,0.024,0.0327,0.0458,0.0487,0.0623,0.0678,0.0783,0.0839,0.0859,0.0982,0.0853,0.0841,0.0831,0.1192,0.1207,0.122,0,0,0,0,0,0,0.0122,0.0151,0.0191,0.0271,0.0238,0.0261,0.0282,0.0363,0.0502,0.0557,0.0679,0.0708,0.0837,0.0772,0.083,0.0896,0.08,0.0793,0.1066,0.1081,0.1092,0.1031,0.0888,0,0,0,0,0,0.0139,0.0152,0.0179,0.0198,0.0224,0.0279,0.0292,0.0334,0.0411,0.0488,0.0623,0.0696,0.078,0.0833,0.0861,0.0926,0.0891,0.0964,0.0977,0.099,0.0923,0.1027,0.1051,0.0789,0.0789,0.0789,0,0,0.0101,0.014,0.0126,0.0195,0.0216,0.0272,0.0314,0.0314,0.0398,0.0481,0.0703,0.0778,0.0796,0.0903,0.0941,0.0895,0.1037,0.0976,0.0992,0.0914,0.102,0.1048,0.1073,0.0782,0.0783,0.0784,0,0,0.0019,0.0146,0.0139,0.0155,0.0155,0.0234,0.0256,0.0344,0.0449,0.0564,0.0686,0.0812,0.0911,0.0996,0.1038,0.1081,0.1113,0.1064,0.1116,0.1226,0.1254,0.1278,0.1305,0.1328,0.1063,0.1063,0.1064,0,0.0014,0.0077,0.0104,0.0139,0.0188,0.0255,0.032,0.0401,0.0508,0.0582,0.0636,0.0875,0.0954,0.1122,0.1148,0.1144,0.1155,0.114,0.1268,0.129,0.1308,0.1329,0.1351,0.108,0.1078,0.1076,0.1075,0,-0.0042,0.0023,0.0026,0.0154,0.0202,0.0236,0.0349,0.0465,0.063,0.0686,0.0875,0.0997,0.1127,0.1184,0.1215,0.1373,0.1326,0.1326,0.1304,0.1363,0.1373,0.139,0.1104,0.1098,0.1093,0.1089,0,0,0.0044,0.0002,0.0044,0.0072,0.0252,0.0272,0.0454,0.0608,0.0743,0.0853,0.1074,0.1207,0.1271,0.13,0.1399,0.1474,0.1694,0.1454,0.1453,0.1598,0.1894,0.169,0.1686,0.178,0.1783,0.1786,0.1871,0,0.0071,0.0077,0.0119,0.0208,0.0277,0.0417,0.055,0.0658,0.0846,0.1061,0.1171,0.1371,0.1318,0.1477,0.1549,0.1622,0.1739,0.1663,0.1697,0.1694,0.1612,0.1699,0.1581,0.163,0.1886,0.1888,0.189,0,0.0135,0.0155,0.0219,0.0245,0.0305,0.0406,0.0716,0.08,0.1041,0.1178,0.1372,0.1489,0.1632,0.1655,0.1741,0.17,0.1814,0.1858,0.1865,0.1529,0.1517,0.1583,0.1648,0.1916,0.1914,0.1912,0.191,0,0.0221,0.0256,0.0319,0.0353,0.0428,0.0545,0.0644,0.0857,0.0962,0.1316,0.1498,0.1613,0.1804,0.1838,0.1878,0.1859,0.1992,0.1995,0.1918,0.1904,0.171,0.167,0.2171,0.2171,0.2171,0.2171,0.2171,0,0.0285,0.0335,0.0356,0.0401,0.051,0.0563,0.0741,0.0881,0.1133,0.1285,0.1556,0.1772,0.1879,0.1977,0.195,0.1899,0.2046,0.19,0.1919,0.1822,0.1793,0.1929,0.1899,0.2174,0.2173,0.2173,0.2172,0,0.0332,0.0305,0.0389,0.0501,0.0525,0.0626,0.0744,0.0866,0.1115,0.1412,0.155,0.1897,0.1994,0.2039,0.2153,0.2013,0.1985,0.2016,0.1832,0.1822,0.1805,0.1792,0.1851,0.1844,0.1839,0.1835,0.1831,0,0.0333,0.0379,0.0498,0.0521,0.0586,0.069,0.0753,0.0895,0.1062,0.1444,0.1621,0.1902,0.2015,0.201,0.1893,0.1774,0.2003,0.1691,0.1604,0.1762,0.1778,0.1772,0.1767,0.1531,0.1525,0.152,0.1516,0,0.0412,0.0481,0.0527,0.0629,0.07,0.0762,0.0889,0.0973,0.1196,0.1386,0.1662,0.1751,0.1833,0.1681,0.1601,0.1508,0.162,0.1578,0.19,0.1577,0.1454,0.1469,0.1477,0.1473,0.1477,0.1481,0.1483,0.1485,0.0476,0.0547,0.0628,0.0729,0.0813,0.0939,0.0976,0.1093,0.1228,0.1432,0.1506,0.1572,0.1527,0.1266,0.1205,0.1228,0.1273,0.1275,0.1296,0.1321,0.1215,0.1084,0.1012,0.1013,0.1015,0.1016,0.1017,0,0.0596,0.0622,0.07,0.0804,0.0965,0.1019,0.1149,0.1162,0.1279,0.1282,0.1318,0.1114,0.0979,0.1077,0.0974,0.0833,0.0861,0.09,0.1023,0.1061,0.1095,0.0986,0.0719,0.0719,0.0719,0.0719,0,0,0.0575,0.0643,0.0717,0.0968,0.1092,0.1256,0.1334,0.1304,0.1305,0.1139,0.1071,0.0877,0.0968,0.0833,0.0766,0.0821,0.0954,0.0769,0.0994,0.1179,0.1216,0.127,0.1133,0,0,0,0,0]},{"header":{"parameterUnit":"m.s-1","parameterCategory":2,"la1":30.2991,"la2":30.254,"lo1":-89.0895,"lo2":-89.0444,"dy":0.0017,"dx":0.0017,"nx":28,"ny":28,"refTime":"2023-08-08T21:00:00:Z","depth":"2","parameterNumber":3,"parameterNumberName":"V-component_of_CURRENTS"},"data":[0,0,0,0,0,0,0,0,0,0,0,0,0,0,0,0,0,0,0,0,0,0,0,0,0,0,0,0,0,0,0,0,0,0,0,0,0,0,0,0,0,0,0,0,0,0,0,0,0,0,0,0,0,0,0,0,0,0,-0.0259,-0.026,0,-0.0412,-0.0414,-0.0416,-0.0491,-0.0491,-0.049,-0.049,-0.0565,-0.0567,-0.057,0,0,0,0,0,0,0,0,0,0,0,0,0,-0.0249,-0.0248,-0.0259,-0.026,-0.0262,-0.0412,-0.0414,-0.0417,-0.0491,-0.0491,-0.049,-0.049,-0.0564,-0.0567,-0.057,0,0,0,0,0,0,0,0,0,0,0,0,0,-0.0316,-0.0248,-0.0259,-0.0314,-0.032,-0.0411,-0.0415,-0.0418,-0.0491,-0.0491,-0.049,-0.049,-0.0563,-0.0567,-0.057,-0.0604,0,0,-0.0581,-0.0583,0,0,0,0,0,0,0,0,-0.0312,-0.0317,-0.0304,-0.031,-0.0317,-0.0428,-0.0439,-0.0475,-0.0491,-0.0431,-0.049,-0.0489,-0.051,-0.0518,-0.0555,-0.0608,-0.0611,-0.0582,-0.0584,-0.0585,-0.0586,0,0,0,0,0,0,0,-0.0307,-0.0312,-0.0324,-0.0306,-0.0314,-0.0406,-0.0413,-0.0448,-0.0473,-0.0436,-0.0441,-0.0452,-0.0513,-0.0551,-0.0557,-0.0612,-0.0581,-0.0585,-0.0587,-0.0588,-0.0622,-0.062,0,0,0,0,0,0,-0.0269,-0.0306,-0.0319,-0.0328,-0.0309,-0.0405,-0.0414,-0.0397,-0.0475,-0.0486,-0.0452,-0.0454,-0.0546,-0.0553,-0.056,-0.0527,-0.0585,-0.0589,-0.0591,-0.0623,-0.0621,-0.062,0,0,0,0,0,0,-0.0268,-0.0267,-0.0313,-0.032,-0.0331,-0.0404,-0.0386,-0.04,-0.0432,-0.0487,-0.0497,-0.0467,-0.0546,-0.0555,-0.0583,-0.0533,-0.059,-0.0593,-0.0624,-0.0622,-0.0621,-0.0511,0,0,0,0,0,0,-0.0266,-0.0265,-0.0262,-0.0315,-0.0329,-0.0359,-0.0386,-0.0403,-0.0438,-0.0442,-0.0504,-0.0511,-0.0546,-0.0577,-0.0586,-0.0539,-0.0596,-0.0626,-0.0624,-0.0621,-0.0516,-0.0506,-0.0497,0,0,0,0,0,-0.0265,-0.026,-0.026,-0.0263,-0.0312,-0.0359,-0.0375,-0.043,-0.0438,-0.0456,-0.0491,-0.0509,-0.0567,-0.0581,-0.0591,-0.0543,-0.0627,-0.0624,-0.0621,-0.0521,-0.0508,-0.0497,0,0,0,0,0,0,-0.0239,-0.0268,-0.0269,-0.0266,-0.0302,-0.0369,-0.0411,-0.0423,-0.047,-0.0475,-0.0514,-0.0525,-0.0522,-0.0557,-0.057,-0.0545,-0.0591,-0.0591,-0.0511,-0.05,-0.049,-0.0498,-0.0599,0,0,0,0,0,-0.023,-0.0232,-0.0269,-0.026,-0.0293,-0.0345,-0.0377,-0.0397,-0.0438,-0.046,-0.0491,-0.0516,-0.0522,-0.0532,-0.0557,-0.0561,-0.0586,-0.0531,-0.0521,-0.0512,-0.0525,-0.0495,-0.0483,-0.0611,-0.0611,-0.0611,0,0,-0.0215,-0.0228,-0.0229,-0.0257,-0.0306,-0.0315,-0.0365,-0.0404,-0.0393,-0.0458,-0.0469,-0.049,-0.0517,-0.0512,-0.0511,-0.0533,-0.0491,-0.0508,-0.0501,-0.052,-0.049,-0.0478,-0.0466,-0.0609,-0.0609,-0.061,0,0,-0.0185,-0.0206,-0.0208,-0.0233,-0.0282,-0.0309,-0.0307,-0.0364,-0.0389,-0.0398,-0.042,-0.0414,-0.0452,-0.0446,-0.0447,-0.0402,-0.044,-0.0403,-0.036,-0.0327,-0.0317,-0.0307,-0.0332,-0.0326,-0.0396,-0.0396,-0.0395,0,-0.0162,-0.0146,-0.0216,-0.022,-0.0231,-0.0289,-0.0279,-0.0313,-0.0352,-0.0364,-0.0384,-0.038,-0.041,-0.036,-0.036,-0.0374,-0.0396,-0.0397,-0.0313,-0.0304,-0.0297,-0.0325,-0.0319,-0.039,-0.0391,-0.0391,-0.0392,0,-0.0138,-0.0119,-0.0132,-0.0135,-0.0166,-0.0168,-0.0213,-0.023,-0.0251,-0.0271,-0.025,-0.0275,-0.0263,-0.0259,-0.0312,-0.0255,-0.0303,-0.0301,-0.0339,-0.0277,-0.0311,-0.0307,-0.0382,-0.0384,-0.0386,-0.0387,0,0,-0.008,-0.0103,-0.0097,-0.009,-0.0115,-0.0137,-0.0129,-0.0146,-0.0124,-0.0152,-0.0091,-0.0125,-0.0138,-0.0142,-0.0159,-0.0158,-0.0137,-0.0225,-0.0226,-0.0245,-0.0116,-0.0186,-0.019,-0.0121,-0.0119,-0.0118,-0.0166,0,-0.0026,0.0006,-0.0021,0.0017,0.0015,-0.0028,-0.0012,-0.0036,-0.0049,-0.001,-0.0023,0.0025,-0.0086,-0.0041,-0.0063,-0.0122,-0.0122,-0.0128,-0.0181,-0.0184,-0.0246,-0.0185,-0.02,-0.0247,-0.0163,-0.0162,-0.0162,0,-0.0016,0.003,0.0079,0.0089,0.0078,0.0103,0.0109,0.0124,0.0141,0.0139,0.0174,0.0169,0.017,0.0114,0.0021,0.0014,-0.0055,-0.0104,-0.0105,-0.0211,-0.0245,-0.0295,-0.0244,-0.0156,-0.0157,-0.0157,-0.0157,0,0.002,0.0065,0.0119,0.0128,0.0153,0.0164,0.0174,0.017,0.0205,0.0275,0.0347,0.0314,0.0363,0.0259,0.0091,0.0069,-0.0004,-0.002,-0.0138,-0.0146,-0.0192,-0.0206,-0.0035,-0.0035,-0.0035,-0.0035,-0.0034,0,0.0061,0.0095,0.0145,0.0189,0.0252,0.0224,0.0296,0.0297,0.0379,0.0472,0.045,0.0551,0.04,0.0335,0.0162,-0.0012,0.0052,-0.0136,-0.0149,-0.0158,-0.0168,-0.0118,-0.0127,-0.0036,-0.0036,-0.0036,-0.0035,0,0.0077,0.0105,0.0171,0.0248,0.027,0.031,0.0387,0.0456,0.0508,0.0666,0.072,0.0725,0.061,0.0425,0.0264,0.01,-0.0054,-0.011,-0.0153,-0.0171,-0.024,-0.0242,-0.0246,-0.0248,-0.025,-0.0252,-0.0254,0,0.0097,0.0144,0.0241,0.0289,0.0333,0.0406,0.0479,0.0531,0.0638,0.0773,0.0888,0.0845,0.0784,0.0477,0.0204,-0.0093,-0.0079,-0.0246,-0.0277,-0.0242,-0.0254,-0.0254,-0.0254,-0.0303,-0.0304,-0.0306,-0.0307,0,0.018,0.02,0.0263,0.0386,0.0464,0.058,0.0695,0.0797,0.0905,0.0998,0.1107,0.1058,0.0779,0.0438,0.0045,-0.0124,-0.022,-0.0285,-0.0187,-0.0254,-0.03,-0.0312,-0.0308,-0.032,-0.0319,-0.0318,-0.0317,-0.0317,0.0232,0.0287,0.0372,0.0464,0.058,0.0761,0.0877,0.1009,0.1158,0.1206,0.116,0.1,0.0628,0.0039,-0.0169,-0.0315,-0.0321,-0.0414,-0.0407,-0.0398,-0.0403,-0.0451,-0.0503,-0.0503,-0.0503,-0.0503,-0.0502,0,0.0301,0.0353,0.0455,0.0589,0.0741,0.0806,0.104,0.1162,0.1344,0.1172,0.1097,0.066,0.0255,-0.0024,-0.0275,-0.0484,-0.0452,-0.0508,-0.0442,-0.0432,-0.0421,-0.0423,-0.0531,-0.0531,-0.053,-0.053,0,0,0.033,0.0411,0.0465,0.0708,0.0838,0.109,0.1243,0.1402,0.1381,0.1166,0.0914,0.0422,0.0174,-0.0085,-0.0326,-0.0373,-0.0333,-0.038,-0.0352,-0.0238,-0.0223,-0.0382,-0.0376,0,0,0,0,0]}],[{"header":{"parameterUnit":"m.s-1","parameterCategory":2,"la1":30.2991,"la2":30.254,"lo1":-89.0895,"lo2":-89.0444,"dy":0.0017,"dx":0.0017,"nx":28,"ny":28,"refTime":"2023-08-08T21:00:00:Z","depth":"4","parameterNumber":2,"parameterNumberName":"U-component_of_CURRENTS"},"data":[0,0,0,0,0,0,0,0,0,0,0,0,0,0,0,0,0,0,0,0,0,0,0,0,0,0,0,0,0,0,0,0,0,0,0,0,0,0,0,0,0,0,0,0,0,0,0,0,0,0,0,0,0,0,0,0,0,0,-0.0208,-0.0207,0,-0.0186,-0.0187,-0.0187,-0.0202,-0.0202,-0.0202,-0.0202,-0.0298,-0.03,-0.0303,0,0,0,0,0,0,0,0,0,0,0,0,0,-0.0289,-0.0288,-0.0208,-0.0207,-0.0206,-0.0186,-0.0187,-0.0187,-0.0202,-0.0202,-0.0202,-0.0202,-0.0297,-0.03,-0.0303,0,0,0,0,0,0,0,0,0,0,0,0,0,-0.0267,-0.0288,-0.0208,-0.0205,-0.0204,-0.0186,-0.0187,-0.0187,-0.0202,-0.0202,-0.0202,-0.0202,-0.0296,-0.03,-0.0304,-0.0327,0,0,-0.0315,-0.0317,0,0,0,0,0,0,0,0,-0.0268,-0.0264,-0.0207,-0.0205,-0.0204,-0.019,-0.025,-0.0237,-0.0202,-0.0211,-0.0202,-0.0202,-0.0268,-0.0274,-0.0279,-0.0332,-0.0336,-0.0316,-0.0318,-0.032,-0.0321,0,0,0,0,0,0,0,-0.0269,-0.0265,-0.0207,-0.0205,-0.0204,-0.0214,-0.0212,-0.0248,-0.0248,-0.021,-0.0209,-0.0195,-0.0269,-0.0275,-0.0282,-0.0338,-0.0316,-0.0319,-0.0321,-0.0323,-0.0394,-0.0394,0,0,0,0,0,0,-0.0255,-0.0267,-0.0207,-0.0205,-0.0228,-0.0212,-0.021,-0.0201,-0.0244,-0.0248,-0.0195,-0.0196,-0.0269,-0.0277,-0.0285,-0.034,-0.032,-0.0323,-0.0325,-0.0394,-0.0394,-0.0393,0,0,0,0,0,0,-0.0258,-0.0251,-0.0208,-0.023,-0.0224,-0.021,-0.02,-0.02,-0.0206,-0.023,-0.0238,-0.02,-0.0269,-0.028,-0.0311,-0.0343,-0.0325,-0.0328,-0.0395,-0.0394,-0.0394,-0.0435,0,0,0,0,0,0,-0.026,-0.0252,-0.0243,-0.0229,-0.0222,-0.0193,-0.02,-0.02,-0.0193,-0.0195,-0.0237,-0.0246,-0.027,-0.0305,-0.0315,-0.0348,-0.0331,-0.0395,-0.0395,-0.0394,-0.0434,-0.0435,-0.0437,0,0,0,0,0,-0.0263,-0.0249,-0.0243,-0.0236,-0.021,-0.0192,-0.019,-0.0186,-0.0194,-0.0193,-0.022,-0.0245,-0.0307,-0.0308,-0.032,-0.0355,-0.0396,-0.0395,-0.0394,-0.0433,-0.0435,-0.0437,0,0,0,0,0,0,-0.0288,-0.0247,-0.0242,-0.0218,-0.0203,-0.0191,-0.0188,-0.0186,-0.0206,-0.0216,-0.0247,-0.0257,-0.029,-0.0307,-0.0307,-0.0365,-0.0353,-0.0354,-0.0378,-0.0381,-0.0382,-0.0405,-0.0335,0,0,0,0,0,-0.0285,-0.0261,-0.0233,-0.0217,-0.021,-0.0202,-0.0195,-0.0192,-0.0201,-0.021,-0.0252,-0.0281,-0.0295,-0.0324,-0.0341,-0.0388,-0.0371,-0.0411,-0.0412,-0.0414,-0.0436,-0.0432,-0.0436,-0.039,-0.039,-0.039,0,0,-0.0286,-0.0263,-0.0249,-0.0219,-0.0213,-0.0208,-0.02,-0.0191,-0.0195,-0.022,-0.0268,-0.0288,-0.03,-0.0341,-0.0359,-0.0366,-0.0405,-0.0413,-0.0415,-0.0436,-0.0431,-0.0436,-0.044,-0.039,-0.039,-0.039,0,0,-0.0283,-0.0264,-0.0246,-0.0237,-0.0216,-0.0211,-0.0207,-0.0213,-0.0223,-0.0255,-0.0266,-0.0299,-0.0352,-0.0367,-0.0376,-0.0393,-0.0399,-0.0407,-0.0462,-0.0457,-0.0462,-0.0466,-0.0401,-0.0399,-0.0426,-0.0426,-0.0426,0,-0.0295,-0.026,-0.0241,-0.0233,-0.0222,-0.0214,-0.0207,-0.0215,-0.0239,-0.025,-0.0273,-0.0337,-0.0358,-0.0384,-0.0409,-0.0402,-0.0389,-0.046,-0.0463,-0.0466,-0.047,-0.0402,-0.04,-0.0428,-0.0428,-0.0427,-0.0427,0,-0.0276,-0.0259,-0.0253,-0.0237,-0.0231,-0.0219,-0.022,-0.0241,-0.0263,-0.0275,-0.0317,-0.0357,-0.0403,-0.0411,-0.0434,-0.0474,-0.0448,-0.0452,-0.0466,-0.0478,-0.0404,-0.04,-0.043,-0.043,-0.0429,-0.0429,0,0,-0.0288,-0.0243,-0.0247,-0.0234,-0.0227,-0.0219,-0.0235,-0.0233,-0.0239,-0.0301,-0.032,-0.0387,-0.0435,-0.0449,-0.0481,-0.0506,-0.0512,-0.0524,-0.0523,-0.0472,-0.0474,-0.0382,-0.0369,-0.054,-0.0541,-0.0541,-0.0395,0,-0.0282,-0.0252,-0.0237,-0.0227,-0.0211,-0.0216,-0.0227,-0.0236,-0.0255,-0.0282,-0.0327,-0.0364,-0.0437,-0.0477,-0.0521,-0.0506,-0.0515,-0.0549,-0.046,-0.0456,-0.0386,-0.0367,-0.0544,-0.0393,-0.0392,-0.0391,-0.0391,0,-0.0275,-0.0248,-0.0226,-0.0202,-0.02,-0.0207,-0.0212,-0.0222,-0.0247,-0.0271,-0.0338,-0.037,-0.0434,-0.0484,-0.0505,-0.0535,-0.0531,-0.0514,-0.0508,-0.0418,-0.0361,-0.0388,-0.0384,-0.0385,-0.0385,-0.0386,-0.0386,0,-0.0277,-0.0247,-0.0221,-0.0215,-0.0196,-0.0204,-0.021,-0.0229,-0.0227,-0.0278,-0.0279,-0.036,-0.0375,-0.0427,-0.0428,-0.0486,-0.0393,-0.0443,-0.0337,-0.0326,-0.0437,-0.0435,-0.0449,-0.0449,-0.045,-0.045,-0.045,0,-0.0268,-0.0252,-0.0222,-0.0211,-0.0196,-0.0204,-0.0204,-0.0223,-0.0236,-0.0222,-0.0297,-0.0291,-0.0376,-0.0337,-0.0382,-0.0319,-0.0349,-0.0338,-0.0296,-0.0447,-0.0448,-0.0431,-0.0431,-0.0444,-0.0446,-0.0447,-0.0448,0,-0.0275,-0.0249,-0.0222,-0.02,-0.0194,-0.02,-0.0193,-0.0188,-0.0208,-0.0189,-0.0209,-0.0217,-0.0195,-0.0199,-0.0197,-0.0205,-0.0176,-0.0139,-0.0226,-0.0191,-0.0128,-0.0131,-0.0041,-0.0037,-0.0033,-0.003,-0.0028,0,-0.0268,-0.0251,-0.022,-0.0203,-0.0194,-0.0192,-0.0182,-0.0193,-0.018,-0.0137,-0.0116,-0.0074,-0.0087,0.0032,-0.0016,-0.0003,-0.0029,0.0027,-0.0159,-0.0124,-0.0092,-0.0102,-0.011,-0.0022,-0.0021,-0.002,-0.0019,0,-0.0255,-0.0252,-0.023,-0.0194,-0.0178,-0.0149,-0.0136,-0.0116,-0.0111,-0.0106,-0.0028,0.0001,0.008,0.007,0.0135,0.011,-0.0004,0.0061,0.005,-0.0125,-0.0101,-0.0074,-0.0086,-0.0007,-0.0009,-0.001,-0.0011,0,-0.0257,-0.0243,-0.0215,-0.0187,-0.0151,-0.0109,-0.0108,-0.0065,-0.0046,-0.0003,0.0036,0.0076,0.0095,0.0138,0.0174,0.0192,0.0124,0.0095,0.008,0.0066,0.0026,0.0067,0.0256,0,0,0,0,0,-0.0247,-0.0225,-0.02,-0.0153,-0.0113,-0.0092,-0.0064,-0.0063,-0.0038,0.0025,0.0026,0.0082,0.0142,0.0165,0.019,0.0186,0.0114,0.0218,0.007,0.0061,0.0047,-0.0016,0,0,0,0,0,0,-0.0235,-0.0213,-0.02,-0.0128,-0.0086,-0.0037,-0.0021,-0.0007,0.0023,0.0046,0.0069,0.0101,0.014,0.0123,0.0193,0.0201,0.0114,0.0241,0.0242,0.0069,0.0056,0.0045,-0.0024,0,0,0,0,0]},{"header":{"parameterUnit":"m.s-1","parameterCategory":2,"la1":30.2991,"la2":30.254,"lo1":-89.0895,"lo2":-89.0444,"dy":0.0017,"dx":0.0017,"nx":28,"ny":28,"refTime":"2023-08-08T21:00:00:Z","depth":"4","parameterNumber":3,"parameterNumberName":"V-component_of_CURRENTS"},"data":[0,0,0,0,0,0,0,0,0,0,0,0,0,0,0,0,0,0,0,0,0,0,0,0,0,0,0,0,0,0,0,0,0,0,0,0,0,0,0,0,0,0,0,0,0,0,0,0,0,0,0,0,0,0,0,0,0,0,-0.0087,-0.0087,0,-0.0079,-0.0079,-0.0079,-0.0082,-0.0082,-0.0082,-0.0082,-0.0154,-0.0156,-0.0158,0,0,0,0,0,0,0,0,0,0,0,0,0,-0.0061,-0.0062,-0.0087,-0.0087,-0.0087,-0.0079,-0.0079,-0.0079,-0.0082,-0.0082,-0.0082,-0.0082,-0.0153,-0.0156,-0.0158,0,0,0,0,0,0,0,0,0,0,0,0,0,-0.0067,-0.0062,-0.0087,-0.0086,-0.0085,-0.0079,-0.0079,-0.0079,-0.0082,-0.0082,-0.0082,-0.0082,-0.0153,-0.0155,-0.0158,-0.0176,0,0,-0.0167,-0.0168,0,0,0,0,0,0,0,0,-0.0066,-0.0068,-0.0086,-0.0086,-0.0085,-0.008,-0.0096,-0.0115,-0.0082,-0.0085,-0.0082,-0.0082,-0.0135,-0.014,-0.014,-0.0179,-0.0182,-0.0167,-0.0169,-0.017,-0.0171,0,0,0,0,0,0,0,-0.0066,-0.0068,-0.0086,-0.0086,-0.0085,-0.007,-0.0071,-0.0099,-0.0113,-0.0085,-0.0085,-0.0081,-0.0136,-0.0137,-0.0142,-0.0184,-0.0167,-0.017,-0.0172,-0.0173,-0.0319,-0.0321,0,0,0,0,0,0,-0.0066,-0.0068,-0.0086,-0.0086,-0.0073,-0.007,-0.0072,-0.0083,-0.0111,-0.0114,-0.0081,-0.0081,-0.0132,-0.0138,-0.0144,-0.0224,-0.017,-0.0173,-0.0175,-0.0317,-0.0319,-0.0322,0,0,0,0,0,0,-0.0065,-0.0068,-0.0087,-0.0074,-0.0075,-0.0071,-0.0083,-0.0083,-0.0086,-0.0107,-0.0112,-0.0084,-0.0132,-0.014,-0.0191,-0.0225,-0.0174,-0.0177,-0.0314,-0.0318,-0.0321,-0.0347,0,0,0,0,0,0,-0.0065,-0.0068,-0.0074,-0.0075,-0.0076,-0.0088,-0.0083,-0.0083,-0.0083,-0.0083,-0.0112,-0.0118,-0.0133,-0.0187,-0.0194,-0.0228,-0.0179,-0.0311,-0.0316,-0.032,-0.0344,-0.0351,-0.0357,0,0,0,0,0,-0.0064,-0.0067,-0.0075,-0.0076,-0.0085,-0.0088,-0.0088,-0.0085,-0.0083,-0.0088,-0.012,-0.0117,-0.0218,-0.0191,-0.0198,-0.0234,-0.031,-0.0315,-0.0319,-0.0341,-0.035,-0.0357,0,0,0,0,0,0,-0.006,-0.0068,-0.0076,-0.0083,-0.0089,-0.0088,-0.0085,-0.0087,-0.0113,-0.0121,-0.0139,-0.0149,-0.0209,-0.0221,-0.019,-0.0292,-0.0266,-0.0272,-0.0279,-0.0288,-0.0295,-0.029,-0.0182,0,0,0,0,0,-0.0062,-0.0066,-0.0077,-0.0082,-0.0085,-0.0088,-0.0087,-0.0094,-0.0113,-0.0123,-0.015,-0.0189,-0.0235,-0.0258,-0.0297,-0.0345,-0.0342,-0.0378,-0.0384,-0.039,-0.0394,-0.0415,-0.0423,-0.0338,-0.0338,-0.0338,0,0,-0.0066,-0.0065,-0.0071,-0.008,-0.0083,-0.0107,-0.0088,-0.0095,-0.0126,-0.013,-0.0185,-0.0213,-0.0254,-0.0316,-0.0344,-0.0329,-0.0414,-0.0396,-0.04,-0.0402,-0.0421,-0.0429,-0.0436,-0.0341,-0.034,-0.034,0,0,-0.0074,-0.0072,-0.0086,-0.0097,-0.0105,-0.0111,-0.0116,-0.0134,-0.015,-0.0206,-0.0223,-0.0269,-0.0336,-0.0369,-0.0396,-0.0463,-0.0449,-0.0482,-0.0511,-0.0531,-0.0537,-0.0543,-0.0544,-0.055,-0.0484,-0.0484,-0.0484,0,-0.0082,-0.0099,-0.009,-0.0112,-0.0122,-0.0119,-0.0149,-0.0169,-0.0207,-0.0233,-0.0234,-0.0342,-0.0365,-0.0441,-0.0465,-0.0477,-0.0478,-0.0471,-0.0537,-0.0542,-0.0548,-0.0547,-0.0553,-0.0486,-0.0486,-0.0486,-0.0485,0,-0.0109,-0.0128,-0.0132,-0.0165,-0.0178,-0.0194,-0.0224,-0.0251,-0.0273,-0.0301,-0.0379,-0.0416,-0.0477,-0.0496,-0.0501,-0.0561,-0.0546,-0.0539,-0.0506,-0.0557,-0.0555,-0.056,-0.0489,-0.0488,-0.0488,-0.0487,0,0,-0.0126,-0.0149,-0.0157,-0.0174,-0.0206,-0.0218,-0.0273,-0.0318,-0.0354,-0.0409,-0.0465,-0.0539,-0.0549,-0.058,-0.0593,-0.0609,-0.0638,-0.0589,-0.0589,-0.0573,-0.067,-0.0616,-0.0616,-0.0638,-0.0639,-0.064,-0.065,0,-0.0155,-0.0194,-0.0206,-0.0253,-0.0272,-0.0293,-0.034,-0.0386,-0.0424,-0.048,-0.0526,-0.0588,-0.0585,-0.0613,-0.0634,-0.0632,-0.0655,-0.0635,-0.0639,-0.0639,-0.057,-0.0621,-0.0644,-0.0654,-0.0655,-0.0656,-0.0657,0,-0.0187,-0.0202,-0.0252,-0.0284,-0.0297,-0.0337,-0.0393,-0.0439,-0.0513,-0.0548,-0.0615,-0.0641,-0.069,-0.0675,-0.0707,-0.0693,-0.0692,-0.0687,-0.0687,-0.063,-0.0594,-0.0598,-0.0666,-0.0665,-0.0665,-0.0664,-0.0663,0,-0.0189,-0.0234,-0.0265,-0.0282,-0.0329,-0.0365,-0.04,-0.0469,-0.0504,-0.0596,-0.0619,-0.0692,-0.0707,-0.0736,-0.0713,-0.0719,-0.0723,-0.073,-0.0689,-0.0684,-0.0713,-0.0707,-0.0768,-0.0768,-0.0768,-0.0768,-0.0768,0,-0.0209,-0.0236,-0.027,-0.0292,-0.0336,-0.0374,-0.0436,-0.0486,-0.0551,-0.0582,-0.0653,-0.0666,-0.0718,-0.0717,-0.0727,-0.0704,-0.0736,-0.0702,-0.069,-0.0725,-0.0721,-0.0716,-0.071,-0.0768,-0.0768,-0.0768,-0.0768,0,-0.0221,-0.024,-0.0271,-0.0319,-0.034,-0.0379,-0.0446,-0.0483,-0.0542,-0.0582,-0.0607,-0.0643,-0.0643,-0.0672,-0.0691,-0.0692,-0.0698,-0.0685,-0.0702,-0.0689,-0.065,-0.0645,-0.0671,-0.0669,-0.0667,-0.0666,-0.0665,0,-0.0235,-0.0253,-0.029,-0.0309,-0.034,-0.0395,-0.0429,-0.049,-0.0511,-0.0544,-0.0545,-0.0562,-0.0582,-0.0569,-0.0605,-0.0642,-0.0641,-0.065,-0.0684,-0.0658,-0.0644,-0.0641,-0.0639,-0.0663,-0.0663,-0.0662,-0.0662,0,-0.026,-0.0267,-0.0288,-0.032,-0.0355,-0.0393,-0.0435,-0.044,-0.0483,-0.0511,-0.0491,-0.0512,-0.0501,-0.0531,-0.0548,-0.0574,-0.0655,-0.0636,-0.064,-0.0672,-0.0649,-0.0636,-0.0635,-0.0657,-0.0658,-0.0658,-0.0658,0,-0.0276,-0.0287,-0.0302,-0.0329,-0.0363,-0.0388,-0.0413,-0.0418,-0.044,-0.0454,-0.0427,-0.0453,-0.0464,-0.049,-0.0501,-0.0527,-0.0553,-0.0572,-0.0581,-0.0587,-0.0558,-0.0516,-0.048,0,0,0,0,0,-0.0287,-0.0293,-0.0316,-0.0338,-0.0363,-0.0385,-0.041,-0.0422,-0.0424,-0.0402,-0.0422,-0.0415,-0.0441,-0.045,-0.047,-0.0494,-0.0567,-0.0518,-0.0596,-0.063,-0.0635,-0.0611,0,0,0,0,0,0,-0.03,-0.0312,-0.0309,-0.0331,-0.0348,-0.038,-0.0397,-0.0401,-0.0386,-0.0385,-0.0396,-0.0406,-0.0433,-0.0425,-0.0463,-0.0472,-0.0521,-0.0533,-0.0533,-0.0626,-0.0632,-0.0636,-0.0613,0,0,0,0,0]}]]